Location: Oshawa
(43.9000°N, 78.8670°W)
Time: 00:18:11
(UTC-04:00)

Cosmos 1821 Rocket - Visible Passes

Search period start: 02 September 2014 00:00
Search period end: 12 September 2014 00:00
Orbit: 947 x 1004 km, 82.9° (Epoch: 31 August)

Date Brightness Start Highest point End Pass type
(mag) Time Alt. Az. Time Alt. Az. Time Alt. Az.
02 Sep 6.8 20:51:18 10° NW 20:55:27 18° W 20:59:35 10° WSW visible
05 Sep 7.6 06:02:00 10° E 06:02:56 10° ENE 06:03:52 10° ENE visible
05 Sep 6.8 20:21:53 10° NW 20:26:29 21° W 20:31:02 10° SW visible
06 Sep 7.5 20:49:30 10° WNW 20:51:21 11° WNW 20:53:11 10° W visible
09 Sep 7.0 05:54:56 10° ESE 05:58:48 17° E 06:02:42 10° NE visible
09 Sep 7.4 20:19:30 10° NW 20:22:24 14° WNW 20:25:16 10° WSW visible
